DMSP 5D-2 F13 DEB, 42308

Orbit data source: Space-Track

DMSP 5D-2 F13 DEB, 42308 is space debris in SSO originally from a launch on Fri, 24 Mar 1995 UTC launched from the Air Force Western Test Range (AFWTR). Debris objects in space refer to the collection of defunct objects orbiting the Earth. Examples of debris include non-operational satellites, rocket bodies, and fragments generated from explosions, collisions, or faulty payload assembly.

Loading next visibility...
Identifier
42308, 1995-015JA
Orbit
SSO
Country
Flag of USUS
Related business
Manufacturer
Unknown
Mission
Spacecraft
Bus & Motor
Unknown
Mass
Unknown
Launch date (UTC)
1995-03-24 (31 years ago)
Launch vehicle
Unknown
Launch site
Air Force Western Test Range (AFWTR)
Object type
Payload
Rocket body
Debris
Shape & HBR
Unknown shape, 0.1 m
Radar Cross Section
Medium (>0.1 m² and <1 m²)

Expand to show TLE details & history
Last TLE update: 2 days ago

TLE from 2 days ago
0 DMSP 5D-2 F13 DEB
1 42308U 95015JA  26255.39540172  .00009456  00000-0  18058-2 0  9996
2 42308  98.8750 317.2862 0010476 301.9588  58.0593 14.64136204590620
Epoch: 2026-09-12T09:29Z
TLE epoch observation values (Epoch: 2026-09-12T09:29:22.708Z)
Latitude
-0.00005°
Longitude
-176.46343°
Altitude
678.912 km
Speed
7.519 km/s
True Right ascension
21h 09m 08s
True Declination
0° 00' 00"
Sunlit
Object was in full shadow at epoch
Visualization orbit readout
Latitude
Unknown
Longitude
Unknown
Altitude
Unknown
Speed
Unknown
Apparent Right ascension
Unknown
Apparent Declination
Unknown
Sunlit
N/A
Visualization observer readout
Local Sidereal Time
03:33:24
Azimuth
Unknown
Elevation
Unknown
Doppler factor
Unknown
Orbital elements
Apogee altitude
684.349 km
Perigee altitude
669.567 km
Semi-major axis
7,055.095 km
Eccentricity
0.00105
Inclination
98.875°
RAAN
317.2862°
Arg. of periapsis
301.9588°
True anomaly
58.16124°
Mean anomaly
58.0593°
Eccentric anomaly
58.11026°
Mean motion
3.66259 °/min
Orbital period
98.29 mins
BSTAR
0.0018058
Loading maneuver chart data...
Computing Atmospheric mass density...

Documentation

Showing up to 5 results
|